EWG8EL EDDH-EGLL

Flight info

Callsign EWG8EL
Flight time 1h 25m
Altitude 30000
Route WSN5G/33 WSN N125 ITMIZ DCT ABNED L980 LOGAN
Aircraft A320/M-SDE3FGHIRWY/LB1

Departure

Time 2026-04-25 15:36
Airport Hamburg Helmut Schmidt Airport (EDDH)

Arrival

Time 2026-04-25 17:02
Airport London Heathrow Airport (EGLL)
Time Latitude Longitude Altitude Speed Heading
2026-04-25 14:20 53.62926 10.00288 51 ft 0 kts 121°
2026-04-25 15:29 53.62934 10.00269 47 ft 2 kts 121°
2026-04-25 15:29 53.62942 10.00244 48 ft 2 kts 121°
2026-04-25 15:30 53.62951 10.00219 47 ft 2 kts 121°
2026-04-25 15:30 53.62960 10.00195 49 ft 2 kts 121°
2026-04-25 15:30 53.62969 10.00170 45 ft 2 kts 121°
2026-04-25 15:30 53.62978 10.00146 49 ft 2 kts 121°
2026-04-25 15:31 53.62986 10.00122 49 ft 2 kts 125°
2026-04-25 15:31 53.62999 10.00106 48 ft 2 kts 193°
2026-04-25 15:31 53.63006 10.00110 49 ft 0 kts 211°
2026-04-25 15:33 53.62989 10.00093 47 ft 8 kts 208°
2026-04-25 15:33 53.62921 9.99996 50 ft 17 kts 239°
2026-04-25 15:34 53.62892 9.99900 47 ft 0 kts 241°
2026-04-25 15:34 53.62892 9.99897 47 ft 0 kts 241°
2026-04-25 15:34 53.62877 9.99851 50 ft 11 kts 241°
2026-04-25 15:34 53.62873 9.99749 49 ft 16 kts 296°
2026-04-25 15:35 53.63172 9.99479 50 ft 49 kts 333°
2026-04-25 15:35 53.63676 9.99043 50 ft 111 kts 333°
2026-04-25 15:35 53.64517 9.98336 132 ft 151 kts 332°
2026-04-25 15:36 53.66569 9.96817 1369 ft 177 kts 331°
2026-04-25 15:36 53.67728 9.95945 1971 ft 191 kts 328°
2026-04-25 15:36 53.68970 9.94834 2540 ft 211 kts 327°
2026-04-25 15:37 53.70306 9.93531 3078 ft 233 kts 321°
2026-04-25 15:37 53.71293 9.91278 3614 ft 252 kts 289°
2026-04-25 15:37 53.71310 9.88269 4139 ft 266 kts 262°
2026-04-25 15:37 53.70797 9.85292 4659 ft 267 kts 258°
2026-04-25 15:38 53.70193 9.82298 4957 ft 271 kts 257°
2026-04-25 15:38 53.69563 9.79306 5003 ft 269 kts 257°
2026-04-25 15:38 53.68934 9.76321 5321 ft 270 kts 257°
2026-04-25 15:38 53.68303 9.73242 5965 ft 285 kts 258°
2026-04-25 15:39 53.67656 9.69997 6594 ft 298 kts 258°
2026-04-25 15:39 53.66983 9.66595 7196 ft 310 kts 258°
2026-04-25 15:39 53.66297 9.63123 7784 ft 319 kts 258°
2026-04-25 15:39 53.65579 9.59546 8400 ft 324 kts 256°
2026-04-25 15:40 53.64505 9.56130 9030 ft 338 kts 243°
2026-04-25 15:40 53.64037 9.55035 9238 ft 340 kts 242°
2026-04-25 15:40 53.61710 9.49628 10235 ft 344 kts 242°
2026-04-25 15:40 53.60298 9.46337 10826 ft 348 kts 242°
2026-04-25 15:41 53.58866 9.43011 11426 ft 352 kts 242°
2026-04-25 15:41 53.57439 9.39702 12030 ft 355 kts 241°
2026-04-25 15:41 53.55976 9.36321 12644 ft 359 kts 241°
2026-04-25 15:41 53.54504 9.32910 13265 ft 363 kts 241°
2026-04-25 15:42 53.53008 9.29436 13919 ft 368 kts 241°
2026-04-25 15:42 53.51489 9.25913 14484 ft 372 kts 241°
2026-04-25 15:42 53.49961 9.22370 15070 ft 375 kts 242°
2026-04-25 15:42 53.48735 9.18567 15656 ft 369 kts 252°
2026-04-25 15:43 53.47683 9.14690 16257 ft 371 kts 252°
2026-04-25 15:43 53.46609 9.10715 16870 ft 373 kts 252°
2026-04-25 15:43 53.45531 9.06731 17500 ft 375 kts 252°
2026-04-25 15:43 53.44451 9.02741 18149 ft 376 kts 252°
2026-04-25 15:44 53.43357 8.98714 18738 ft 378 kts 252°
2026-04-25 15:44 53.42276 8.94743 19306 ft 379 kts 252°
2026-04-25 15:44 53.41180 8.90729 19875 ft 379 kts 252°
2026-04-25 15:44 53.40076 8.86696 20461 ft 380 kts 252°
2026-04-25 15:45 53.39344 8.84029 20861 ft 379 kts 252°
2026-04-25 15:45 53.37867 8.78652 21680 ft 379 kts 252°
2026-04-25 15:45 53.36765 8.74642 22287 ft 378 kts 251°
2026-04-25 15:45 53.36409 8.73349 22486 ft 378 kts 251°
2026-04-25 15:46 53.34580 8.66716 23574 ft 376 kts 252°
2026-04-25 15:46 53.33482 8.62749 24142 ft 374 kts 252°
2026-04-25 15:46 53.32484 8.58762 24712 ft 367 kts 258°
2026-04-25 15:46 53.31687 8.54709 25284 ft 365 kts 258°
2026-04-25 15:47 53.30916 8.50674 25874 ft 362 kts 259°
2026-04-25 15:47 53.30160 8.46662 26475 ft 359 kts 259°
2026-04-25 15:47 53.29419 8.42737 27084 ft 356 kts 259°
2026-04-25 15:47 53.28676 8.38814 27712 ft 353 kts 259°
2026-04-25 15:48 53.27935 8.34918 28346 ft 349 kts 259°
2026-04-25 15:48 53.27198 8.31074 29010 ft 344 kts 259°
2026-04-25 15:48 53.26471 8.27290 29672 ft 339 kts 259°
2026-04-25 15:48 53.25747 8.23529 30059 ft 344 kts 259°
2026-04-25 15:49 53.25006 8.19662 30112 ft 355 kts 259°
2026-04-25 15:49 53.24243 8.15670 30127 ft 367 kts 258°
2026-04-25 15:49 53.23459 8.11582 30129 ft 379 kts 258°
2026-04-25 15:49 53.22637 8.07326 30129 ft 390 kts 258°
2026-04-25 15:50 53.20911 7.98452 30133 ft 412 kts 258°
2026-04-25 15:50 53.19088 7.89195 30130 ft 424 kts 257°
2026-04-25 15:51 53.17855 7.82988 30130 ft 426 kts 257°
2026-04-25 15:51 53.15368 7.70470 30136 ft 426 kts 257°
2026-04-25 15:52 53.13510 7.61086 30138 ft 428 kts 257°
2026-04-25 15:52 53.11609 7.51551 30142 ft 443 kts 257°
2026-04-25 15:53 53.09624 7.41653 30145 ft 456 kts 256°
2026-04-25 15:53 53.07585 7.31582 30152 ft 459 kts 256°
2026-04-25 15:54 53.05535 7.21534 30151 ft 459 kts 256°
2026-04-25 15:54 53.03498 7.11529 30113 ft 460 kts 256°
2026-04-25 15:55 53.01425 7.01406 30155 ft 464 kts 255°
2026-04-25 15:55 52.99330 6.91249 30153 ft 464 kts 255°
2026-04-25 15:56 52.97233 6.81108 30156 ft 464 kts 255°
2026-04-25 15:56 52.95122 6.70967 30154 ft 464 kts 255°
2026-04-25 15:57 52.93015 6.60929 30154 ft 464 kts 255°
2026-04-25 15:57 52.90890 6.50818 30139 ft 464 kts 255°
2026-04-25 15:58 52.88762 6.40709 30151 ft 464 kts 255°
2026-04-25 15:58 52.86618 6.30617 30151 ft 464 kts 255°
2026-04-25 15:59 52.84470 6.20543 30146 ft 464 kts 255°
2026-04-25 15:59 52.82329 6.10549 30166 ft 463 kts 254°
2026-04-25 16:00 52.80881 6.03836 30158 ft 463 kts 254°
2026-04-25 16:00 52.78356 5.92185 30166 ft 462 kts 254°
2026-04-25 16:01 52.76185 5.82175 30175 ft 463 kts 254°
2026-04-25 16:01 52.74001 5.72164 30175 ft 463 kts 254°
2026-04-25 16:02 52.71821 5.62237 30183 ft 463 kts 253°
2026-04-25 16:02 52.69616 5.52259 30166 ft 463 kts 253°
2026-04-25 16:03 52.67416 5.42355 30173 ft 463 kts 253°
2026-04-25 16:03 52.65191 5.32374 30192 ft 463 kts 253°
2026-04-25 16:04 52.62966 5.22423 30176 ft 462 kts 253°
2026-04-25 16:04 52.60734 5.12492 30189 ft 461 kts 253°
2026-04-25 16:05 52.58523 5.02683 30196 ft 461 kts 253°
2026-04-25 16:06 52.55149 4.87828 30181 ft 461 kts 252°
2026-04-25 16:06 52.52895 4.77965 30185 ft 461 kts 252°
2026-04-25 16:07 52.50648 4.68163 30176 ft 461 kts 252°
2026-04-25 16:07 52.48378 4.58315 30174 ft 461 kts 252°
2026-04-25 16:08 52.46095 4.48450 30186 ft 462 kts 252°
2026-04-25 16:08 52.43795 4.38599 30171 ft 462 kts 252°
2026-04-25 16:09 52.41511 4.28839 30185 ft 462 kts 251°
2026-04-25 16:09 52.39195 4.19038 30191 ft 462 kts 251°
2026-04-25 16:10 52.36873 4.09199 30201 ft 461 kts 251°
2026-04-25 16:10 52.34563 3.99398 30203 ft 461 kts 251°
2026-04-25 16:11 52.32234 3.89624 30196 ft 462 kts 251°
2026-04-25 16:11 52.29892 3.79891 30195 ft 462 kts 251°
2026-04-25 16:12 52.27532 3.70095 30202 ft 463 kts 251°
2026-04-25 16:12 52.25179 3.60314 30202 ft 463 kts 251°
2026-04-25 16:13 52.22825 3.50583 30207 ft 463 kts 250°
2026-04-25 16:13 52.20446 3.40813 30203 ft 463 kts 250°
2026-04-25 16:14 52.18050 3.31024 30215 ft 464 kts 250°
2026-04-25 16:14 52.15648 3.21261 30220 ft 464 kts 250°
2026-04-25 16:15 52.13256 3.11568 30209 ft 464 kts 250°
2026-04-25 16:15 52.10835 3.01813 30209 ft 464 kts 249°
2026-04-25 16:16 52.08424 2.92149 30219 ft 464 kts 249°
2026-04-25 16:16 52.05986 2.82398 30229 ft 463 kts 249°
2026-04-25 16:17 52.03547 2.72691 30230 ft 463 kts 249°
2026-04-25 16:17 52.01104 2.63005 30223 ft 462 kts 249°
2026-04-25 16:18 51.98683 2.53443 30248 ft 460 kts 249°
2026-04-25 16:18 51.96243 2.43864 30252 ft 458 kts 249°
2026-04-25 16:19 51.93806 2.34333 30250 ft 456 kts 248°
2026-04-25 16:19 51.91383 2.24896 30243 ft 454 kts 248°
2026-04-25 16:20 51.87735 2.10746 30225 ft 453 kts 248°
2026-04-25 16:21 51.84091 1.96717 30223 ft 453 kts 248°
2026-04-25 16:21 51.81641 1.87336 30218 ft 453 kts 247°
2026-04-25 16:22 51.79179 1.77958 30207 ft 453 kts 247°
2026-04-25 16:22 51.76705 1.68586 30212 ft 453 kts 246°
2026-04-25 16:22 51.75655 1.63811 30210 ft 453 kts 257°
2026-04-25 16:23 51.75205 1.58791 29973 ft 450 kts 262°
2026-04-25 16:23 51.74855 1.53840 29505 ft 436 kts 263°
2026-04-25 16:23 51.74536 1.49113 29067 ft 412 kts 263°
2026-04-25 16:23 51.74236 1.44625 28635 ft 391 kts 263°
2026-04-25 16:24 51.73951 1.40409 28212 ft 373 kts 263°
2026-04-25 16:24 51.73674 1.36347 27786 ft 357 kts 263°
2026-04-25 16:24 51.73407 1.32448 27348 ft 343 kts 263°
2026-04-25 16:24 51.73145 1.28686 26910 ft 330 kts 263°
2026-04-25 16:25 51.72888 1.25057 26482 ft 319 kts 263°
2026-04-25 16:25 51.72721 1.22721 26191 ft 312 kts 263°
2026-04-25 16:25 51.72395 1.18161 25636 ft 300 kts 263°
2026-04-25 16:25 51.72164 1.14911 25229 ft 292 kts 263°
2026-04-25 16:26 51.71936 1.11695 24814 ft 284 kts 263°
2026-04-25 16:26 51.71712 1.08570 24419 ft 278 kts 263°
2026-04-25 16:26 51.71490 1.05503 24024 ft 273 kts 263°
2026-04-25 16:26 51.71270 1.02474 23602 ft 270 kts 263°
2026-04-25 16:27 51.71049 0.99473 23140 ft 268 kts 263°
2026-04-25 16:27 51.70831 0.96497 22679 ft 267 kts 263°
2026-04-25 16:27 51.70616 0.93574 22237 ft 262 kts 263°
2026-04-25 16:27 51.70406 0.90678 21793 ft 258 kts 263°
2026-04-25 16:28 51.70198 0.87827 21356 ft 254 kts 263°
2026-04-25 16:28 51.69992 0.85022 20930 ft 252 kts 263°
2026-04-25 16:28 51.69782 0.82182 20490 ft 257 kts 263°
2026-04-25 16:28 51.69566 0.79288 20084 ft 261 kts 263°
2026-04-25 16:29 51.69348 0.76387 19676 ft 266 kts 264°
2026-04-25 16:29 51.69120 0.73360 19260 ft 270 kts 264°
2026-04-25 16:29 51.68894 0.70374 18863 ft 274 kts 264°
2026-04-25 16:29 51.68663 0.67309 18459 ft 278 kts 264°
2026-04-25 16:30 51.68504 0.65208 18145 ft 280 kts 264°
2026-04-25 16:30 51.68186 0.61048 17543 ft 285 kts 264°
2026-04-25 16:30 51.67945 0.57867 17085 ft 288 kts 264°
2026-04-25 16:30 51.67700 0.54631 16655 ft 291 kts 264°
2026-04-25 16:31 51.67451 0.51373 16223 ft 295 kts 264°
2026-04-25 16:31 51.67198 0.48084 15790 ft 297 kts 264°
2026-04-25 16:31 51.66943 0.44773 15369 ft 300 kts 264°
2026-04-25 16:31 51.66680 0.41412 14949 ft 302 kts 264°
2026-04-25 16:32 51.66421 0.38091 14541 ft 304 kts 264°
2026-04-25 16:32 51.66157 0.34700 14134 ft 305 kts 264°
2026-04-25 16:32 51.65891 0.31291 13682 ft 307 kts 264°
2026-04-25 16:32 51.65624 0.27881 13233 ft 307 kts 264°
2026-04-25 16:33 51.65351 0.24469 12791 ft 308 kts 263°
2026-04-25 16:33 51.65150 0.21024 12351 ft 308 kts 269°
2026-04-25 16:33 51.65146 0.17592 11920 ft 308 kts 271°
2026-04-25 16:33 51.65167 0.14128 11492 ft 308 kts 271°
2026-04-25 16:34 51.65191 0.10695 11073 ft 307 kts 271°
2026-04-25 16:34 51.65217 0.07260 10652 ft 307 kts 271°
2026-04-25 16:34 51.65246 0.03816 10248 ft 306 kts 271°
2026-04-25 16:34 51.65275 0.00388 9816 ft 305 kts 271°
2026-04-25 16:35 51.65300 -0.02985 9406 ft 304 kts 271°
2026-04-25 16:35 51.65323 -0.06399 8968 ft 303 kts 271°
2026-04-25 16:35 51.65346 -0.09782 8537 ft 302 kts 271°
2026-04-25 16:35 51.65367 -0.13152 8111 ft 300 kts 271°
2026-04-25 16:36 51.65387 -0.16503 7691 ft 298 kts 271°
2026-04-25 16:36 51.65393 -0.17630 7550 ft 297 kts 271°
2026-04-25 16:36 51.65421 -0.23154 6855 ft 294 kts 271°
2026-04-25 16:36 51.65435 -0.26345 6802 ft 277 kts 271°
2026-04-25 16:37 51.65447 -0.29379 6370 ft 270 kts 271°
2026-04-25 16:37 51.65458 -0.32344 5933 ft 259 kts 271°
2026-04-25 16:37 51.65466 -0.35191 5498 ft 250 kts 271°
2026-04-25 16:37 51.65474 -0.37954 5074 ft 242 kts 271°
2026-04-25 16:38 51.65481 -0.40628 4649 ft 238 kts 271°
2026-04-25 16:38 51.65491 -0.43290 4146 ft 234 kts 271°
2026-04-25 16:38 51.65503 -0.45864 3921 ft 218 kts 271°
2026-04-25 16:38 51.65511 -0.48139 3995 ft 195 kts 271°
2026-04-25 16:39 51.65517 -0.50283 4012 ft 192 kts 271°
2026-04-25 16:39 51.65524 -0.52421 4020 ft 191 kts 271°
2026-04-25 16:39 51.65530 -0.54550 4012 ft 191 kts 271°
2026-04-25 16:39 51.65537 -0.56689 4007 ft 190 kts 271°
2026-04-25 16:40 51.65545 -0.58826 4008 ft 191 kts 271°
2026-04-25 16:40 51.65551 -0.60966 4008 ft 191 kts 271°
2026-04-25 16:40 51.65556 -0.63108 4010 ft 190 kts 271°
2026-04-25 16:40 51.65563 -0.65238 4009 ft 191 kts 271°
2026-04-25 16:41 51.65571 -0.67374 4007 ft 190 kts 271°
2026-04-25 16:41 51.65573 -0.68067 4008 ft 190 kts 271°
2026-04-25 16:41 51.63658 -0.71879 3335 ft 178 kts 186°
2026-04-25 16:42 51.62460 -0.72068 3080 ft 168 kts 185°
2026-04-25 16:42 51.61330 -0.72232 2902 ft 161 kts 185°
2026-04-25 16:42 51.60222 -0.72391 2698 ft 158 kts 185°
2026-04-25 16:42 51.59137 -0.72546 2548 ft 157 kts 185°
2026-04-25 16:43 51.58051 -0.72767 2513 ft 158 kts 189°
2026-04-25 16:43 51.56968 -0.73086 2508 ft 158 kts 191°
2026-04-25 16:43 51.55886 -0.73420 2511 ft 158 kts 191°
2026-04-25 16:43 51.54804 -0.73754 2509 ft 158 kts 191°
2026-04-25 16:44 51.53723 -0.74089 2508 ft 158 kts 191°
2026-04-25 16:44 51.52642 -0.74425 2507 ft 157 kts 191°
2026-04-25 16:44 51.51613 -0.74744 2502 ft 149 kts 190°
2026-04-25 16:44 51.50620 -0.74525 2509 ft 146 kts 150°
2026-04-25 16:45 51.49846 -0.73489 2510 ft 145 kts 130°
2026-04-25 16:45 51.49241 -0.72186 2509 ft 145 kts 123°
2026-04-25 16:45 51.48694 -0.70829 2508 ft 145 kts 122°
2026-04-25 16:45 51.48143 -0.69473 2504 ft 145 kts 129°
2026-04-25 16:46 51.47415 -0.68351 2505 ft 145 kts 129°
2026-04-25 16:46 51.47162 -0.66868 2512 ft 144 kts 77°
2026-04-25 16:46 51.47744 -0.65639 2510 ft 142 kts 24°
2026-04-25 16:46 51.48059 -0.65462 2512 ft 142 kts 13°
2026-04-25 16:47 51.49695 -0.65217 2517 ft 142 kts
2026-04-25 16:47 51.50682 -0.65173 2510 ft 142 kts
2026-04-25 16:47 51.51658 -0.65135 2510 ft 143 kts
2026-04-25 16:47 51.52723 -0.65096 2524 ft 160 kts
2026-04-25 16:48 51.53841 -0.65238 2508 ft 164 kts 339°
2026-04-25 16:48 51.54448 -0.65952 2506 ft 165 kts 309°
2026-04-25 16:48 51.54811 -0.67683 2510 ft 166 kts 276°
2026-04-25 16:48 51.54782 -0.69530 2508 ft 167 kts 254°
2026-04-25 16:49 51.54247 -0.71848 2512 ft 167 kts 250°
2026-04-25 16:49 51.53986 -0.73041 2510 ft 167 kts 252°
2026-04-25 16:49 51.53660 -0.74805 2509 ft 164 kts 255°
2026-04-25 16:49 51.53115 -0.76338 2507 ft 160 kts 218°
2026-04-25 16:50 51.52076 -0.76825 2505 ft 158 kts 179°
2026-04-25 16:50 51.50994 -0.76609 2506 ft 153 kts 164°
2026-04-25 16:50 51.50013 -0.76052 2503 ft 147 kts 158°
2026-04-25 16:50 51.49171 -0.75165 2507 ft 146 kts 132°
2026-04-25 16:51 51.48667 -0.73771 2507 ft 144 kts 108°
2026-04-25 16:51 51.48397 -0.72221 2508 ft 144 kts 102°
2026-04-25 16:51 51.48153 -0.70683 2510 ft 144 kts 107°
2026-04-25 16:51 51.47939 -0.69654 2510 ft 144 kts 108°
2026-04-25 16:52 51.47714 -0.67577 2509 ft 144 kts 78°
2026-04-25 16:52 51.48285 -0.66337 2509 ft 143 kts 25°
2026-04-25 16:52 51.49328 -0.65967 2527 ft 161 kts
2026-04-25 16:52 51.50466 -0.65874 2515 ft 164 kts
2026-04-25 16:53 51.52730 -0.65993 2505 ft 165 kts 337°
2026-04-25 16:53 51.53514 -0.67281 2506 ft 166 kts 291°
2026-04-25 16:53 51.53565 -0.69108 2510 ft 167 kts 258°
2026-04-25 16:54 51.53242 -0.70893 2509 ft 167 kts 252°
2026-04-25 16:54 51.52912 -0.72690 2510 ft 167 kts 258°
2026-04-25 16:54 51.52701 -0.74501 2509 ft 167 kts 261°
2026-04-25 16:54 51.52512 -0.76337 2510 ft 166 kts 261°
2026-04-25 16:55 51.52325 -0.78179 2513 ft 167 kts 261°
2026-04-25 16:55 51.52140 -0.79999 2509 ft 167 kts 261°
2026-04-25 16:55 51.51694 -0.81691 2507 ft 168 kts 226°
2026-04-25 16:55 51.50659 -0.82466 2507 ft 164 kts 188°
2026-04-25 16:56 51.49538 -0.82348 2506 ft 160 kts 163°
2026-04-25 16:56 51.48563 -0.81531 2507 ft 158 kts 140°
2026-04-25 16:56 51.47878 -0.80174 2509 ft 157 kts 116°
2026-04-25 16:56 51.47593 -0.78525 2512 ft 156 kts 92°
2026-04-25 16:57 51.47595 -0.76786 2506 ft 156 kts 88°
2026-04-25 16:57 51.47604 -0.75610 2510 ft 155 kts 88°
2026-04-25 16:57 51.47619 -0.73399 2507 ft 146 kts 88°
2026-04-25 16:57 51.47629 -0.71801 2507 ft 145 kts 88°
2026-04-25 16:58 51.47639 -0.70174 2509 ft 144 kts 88°
2026-04-25 16:58 51.47649 -0.68581 2453 ft 144 kts 88°
2026-04-25 16:58 51.47658 -0.66970 2325 ft 144 kts 89°
2026-04-25 16:58 51.47667 -0.65360 2146 ft 143 kts 88°
2026-04-25 16:59 51.47676 -0.63765 1964 ft 143 kts 88°
2026-04-25 16:59 51.47684 -0.62175 1779 ft 142 kts 88°
2026-04-25 16:59 51.47692 -0.60611 1588 ft 142 kts 88°
2026-04-25 16:59 51.47700 -0.59014 1403 ft 142 kts 88°
2026-04-25 17:00 51.47708 -0.57436 1204 ft 141 kts 88°
2026-04-25 17:00 51.47716 -0.55861 1015 ft 141 kts 88°
2026-04-25 17:00 51.47723 -0.54284 825 ft 142 kts 88°
2026-04-25 17:00 51.47740 -0.52693 634 ft 143 kts 86°
2026-04-25 17:01 51.47748 -0.51096 393 ft 143 kts 90°
2026-04-25 17:01 51.47756 -0.49505 237 ft 143 kts 89°
2026-04-25 17:01 51.47752 -0.47961 92 ft 132 kts 89°
2026-04-25 17:01 51.47756 -0.46726 96 ft 85 kts 90°
2026-04-25 17:02 51.47758 -0.46043 90 ft 46 kts 90°
2026-04-25 17:02 51.47756 -0.45583 89 ft 29 kts 93°
2026-04-25 17:02 51.47645 -0.45469 88 ft 21 kts 180°
2026-04-25 17:02 51.47564 -0.45468 90 ft 0 kts 178°
2026-04-25 17:03 51.47551 -0.45466 90 ft 7 kts 172°
2026-04-25 17:03 51.47504 -0.45345 90 ft 21 kts 93°
2026-04-25 17:03 51.47507 -0.45080 94 ft 26 kts 90°
2026-04-25 17:04 51.47508 -0.44767 91 ft 29 kts 88°
2026-04-25 17:04 51.47439 -0.44557 89 ft 26 kts 173°
2026-04-25 17:04 51.47222 -0.44553 90 ft 33 kts 179°
2026-04-25 17:04 51.47070 -0.44553 86 ft 0 kts 180°